SQ5AAG-2 Weather Reports


time (UTC)temp
F
wind
direction
speed
knots
gust
knots
rain 1hr
in
rain 24hr
in
rain mn
in
humidity
%
barometer
mb
20260508073117 51 0 1.7 1.7 0.00 0.00 0.00 81 1002.6
20260508072617 51 22 0.0 0.0 0.00 0.00 0.00 81 1002.6
20260508072117 52 0 0.0 1.7 0.00 0.00 0.00 81 1002.5
20260508071116 51 0 0.0 0.0 0.00 0.00 0.00 81 1002.5
20260508070616 51 202 0.0 0.9 0.00 0.00 0.00 81 1002.5
20260508070115 51 0 0.0 0.0 0.00 0.00 0.00 82 1002.4
20260508065615 51 0 0.0 0.0 0.00 0.00 0.00 83 1002.3
20260508065115 51 180 0.0 0.0 0.00 0.00 0.00 82 1002.2
20260508064615 51 22 0.0 0.0 0.00 0.00 0.00 82 1002.2
20260508064114 50 22 0.0 0.0 0.00 0.00 0.00 82 1002.1
20260508063615 50 202 0.0 0.0 0.00 0.00 0.00 82 1002.0
20260508063114 50 0 0.0 0.0 0.00 0.00 0.00 82 1002.1
20260508062613 50 157 0.0 0.0 0.00 0.00 0.00 82 1002.0
20260508062113 50 157 0.0 0.0 0.00 0.00 0.00 83 1002.2
20260508061613 50 0 0.0 0.0 0.00 0.00 0.00 83 1002.0
20260508061112 50 22 0.0 0.0 0.00 0.00 0.00 83 1001.9
20260508060612 50 22 0.0 0.0 0.00 0.00 0.00 84 1001.9
20260508060112 50 22 0.0 0.9 0.00 0.00 0.00 84 1001.9
20260508055612 50 0 0.0 0.0 0.00 0.00 0.00 84 1001.9
20260508055111 50 0 0.0 0.9 0.00 0.00 0.00 84 1001.7
20260508054611 50 0 0.0 0.0 0.00 0.00 0.00 84 1001.8
20260508054111 50 0 0.0 0.0 0.00 0.00 0.00 84 1001.8
20260508053610 50 0 0.0 1.7 0.00 0.00 0.00 84 1001.9
20260508053110 50 0 0.0 0.0 0.00 0.00 0.00 84 1001.8
20260508052610 50 0 0.0 0.0 0.00 0.00 0.00 85 1001.6
20260508052110 50 22 0.0 0.0 0.00 0.00 0.00 85 1001.7
20260508051609 50 45 0.0 0.0 0.00 0.00 0.00 85 1001.7
20260508051110 49 0 0.0 0.0 0.00 0.00 0.00 85 1001.8
20260508050609 49 0 0.0 0.0 0.00 0.00 0.00 85 1001.4
20260508050108 49 0 0.0 0.0 0.00 0.00 0.00 85 1001.3
20260508045608 49 0 0.0 0.0 0.00 0.00 0.00 85 1001.4
20260508045108 49 0 0.0 0.0 0.00 0.00 0.00 85 1001.5
20260508044607 49 0 0.0 0.0 0.00 0.00 0.00 85 1001.5
20260508044107 49 202 0.0 0.0 0.00 0.00 0.00 84 1001.3
20260508043607 49 22 0.0 0.0 0.00 0.00 0.00 84 1001.4
20260508043107 49 22 0.0 0.0 0.00 0.00 0.00 84 1001.3
20260508042606 49 0 0.0 0.0 0.00 0.00 0.00 84 1001.3
20260508042107 49 0 0.0 0.0 0.00 0.00 0.00 83 1001.3
20260508041606 49 0 0.0 0.0 0.00 0.00 0.00 83 1001.4
20260508041105 49 0 0.0 0.0 0.00 0.00 0.00 83 1001.2
20260508040605 49 0 0.0 0.0 0.00 0.00 0.00 83 1001.2
20260508040105 49 0 0.0 0.0 0.00 0.00 0.00 83 1001.3
20260508035605 49 180 0.0 0.0 0.00 0.00 0.00 83 1001.4
20260508035105 49 180 0.0 0.0 0.00 0.00 0.00 83 1001.2
20260508034604 49 157 0.0 0.0 0.00 0.00 0.00 83 1001.2
20260508034104 49 0 0.0 0.9 0.00 0.00 0.00 83 1001.4
20260508033603 49 180 0.9 0.9 0.00 0.00 0.00 83 1001.3
20260508033103 49 180 0.0 0.0 0.00 0.00 0.00 82 1001.3
20260508032603 49 180 0.0 0.0 0.00 0.00 0.00 82 1001.3
20260508032102 49 180 0.0 0.0 0.00 0.00 0.00 82 1001.3
20260508031602 49 22 0.0 0.0 0.00 0.00 0.00 82 1001.3
20260508031102 49 22 0.0 0.0 0.00 0.00 0.00 82 1001.2
20260508030602 49 22 0.0 0.0 0.00 0.00 0.00 82 1001.2
20260508025601 49 0 0.0 0.0 0.00 0.00 0.00 82 1001.1
20260508025101 49 135 0.0 0.0 0.00 0.00 0.00 82 1000.9
20260508024600 49 157 0.0 0.0 0.00 0.00 0.00 82 1000.9
20260508024100 49 0 0.0 0.0 0.00 0.00 0.00 82 1000.8
20260508023600 49 0 0.0 0.0 0.00 0.00 0.00 82 1000.9
20260508023100 49 180 0.0 0.0 0.00 0.00 0.00 82 1000.9
20260508022559 49 180 0.0 0.0 0.00 0.00 0.00 82 1000.8
20260508022059 49 22 0.0 0.0 0.00 0.00 0.00 82 1000.9
20260508021559 49 22 0.0 0.0 0.00 0.00 0.00 82 1000.9
20260508021058 49 180 0.0 0.0 0.00 0.00 0.00 82 1001.0
20260508020558 49 180 0.0 0.0 0.00 0.00 0.00 82 1001.0
20260508020058 49 180 0.0 0.0 0.00 0.00 0.00 82 1000.9
20260508015558 49 157 0.0 0.0 0.00 0.00 0.00 81 1000.7
20260508015057 49 135 0.0 0.0 0.00 0.00 0.00 81 1000.8
20260508014557 50 157 0.0 0.9 0.00 0.00 0.00 81 1000.8
20260508014057 50 157 0.0 0.0 0.00 0.00 0.00 81 1000.8
20260508013556 50 157 0.0 0.0 0.00 0.00 0.00 81 1000.8
20260508013056 50 180 0.0 0.0 0.00 0.00 0.00 81 1000.9
20260508012556 50 180 0.0 0.0 0.00 0.00 0.00 80 1000.9
20260508012055 50 135 0.0 0.0 0.00 0.00 0.00 80 1000.8
20260508011555 50 157 0.0 0.0 0.00 0.00 0.00 80 1000.8
20260508011055 50 180 0.0 0.0 0.00 0.00 0.00 80 1000.8
20260508010555 50 180 0.0 0.0 0.00 0.00 0.00 80 1000.8
20260508010054 50 180 0.0 0.0 0.00 0.00 0.00 80 1000.6
20260508005555 50 67 0.0 0.0 0.00 0.00 0.00 80 1000.8
20260508005054 50 202 0.0 0.0 0.00 0.00 0.00 80 1000.5
20260508004554 50 202 0.0 0.0 0.00 0.00 0.00 80 1000.6
20260508004053 50 157 0.0 0.0 0.00 0.00 0.00 80 1000.6
20260508001052 50 45 0.0 0.0 0.00 0.00 0.00 80 1000.5
20260508000552 51 180 0.0 0.0 0.00 0.00 0.00 80 1000.5
20260508000051 51 135 0.0 0.0 0.00 0.00 0.00 80 1000.5
20260507235551 51 112 0.0 0.0 0.00 0.00 0.00 80 1000.6
20260507235051 51 180 0.0 0.0 0.00 0.00 0.00 80 1000.5
20260507234550 51 225 0.0 0.0 0.00 0.00 0.00 79 1000.5
20260507234050 51 0 0.0 0.0 0.00 0.00 0.00 79 1000.5
20260507233550 51 0 0.0 0.0 0.00 0.00 0.00 79 1000.5
20260507233050 51 45 0.0 0.0 0.00 0.00 0.00 79 1000.5
20260507232549 51 225 0.0 0.0 0.00 0.00 0.00 79 1000.5
20260507232049 51 0 0.0 0.0 0.00 0.00 0.00 79 1000.6
20260507231549 51 0 0.0 0.9 0.00 0.00 0.00 79 1000.7
20260507231048 51 0 0.9 0.9 0.00 0.00 0.00 79 1000.6
20260507230548 51 22 0.0 0.9 0.00 0.00 0.00 78 1000.6
20260507230048 51 202 0.0 0.0 0.00 0.00 0.00 78 1000.5
20260507225548 52 180 0.0 0.0 0.00 0.00 0.00 78 1000.5
20260507225047 52 22 0.0 1.7 0.00 0.00 0.00 78 1000.6
20260507224547 52 22 1.7 1.7 0.00 0.00 0.00 78 1000.4
20260507224047 52 135 0.0 0.0 0.00 0.00 0.00 78 1000.3
20260507223546 52 22 0.0 0.0 0.00 0.00 0.00 78 1000.3
20260507223046 52 22 0.0 0.0 0.00 0.00 0.00 78 1000.3
20260507222546 52 22 0.0 0.0 0.00 0.00 0.00 78 1000.3
20260507222045 52 22 0.0 0.0 0.00 0.00 0.00 78 1000.3
20260507221545 52 22 0.0 0.9 0.00 0.00 0.00 78 1000.1
20260507221045 52 0 0.9 0.9 0.00 0.00 0.00 78 1000.0
20260507220545 52 0 0.0 0.0 0.00 0.00 0.00 78 1000.0
20260507220044 52 0 0.0 0.0 0.00 0.00 0.00 78 1000.1
20260507215544 52 22 0.0 0.0 0.00 0.00 0.00 78 1000.1
20260507215044 52 0 0.0 0.0 0.00 0.00 0.00 78 999.8
20260507214543 52 0 0.0 0.0 0.00 0.00 0.00 78 999.9
20260507214043 52 0 0.0 0.0 0.00 0.00 0.00 78 1000.0
20260507213543 52 0 0.0 0.0 0.00 0.00 0.00 78 999.9
20260507213043 52 337 0.0 0.0 0.00 0.00 0.00 77 999.9
20260507212542 52 180 0.0 0.0 0.00 0.00 0.00 77 999.8
20260507212042 53 22 0.0 0.0 0.00 0.00 0.00 77 999.9
20260507211542 53 180 0.0 0.9 0.00 0.00 0.00 77 999.9
20260507211042 53 22 0.9 0.9 0.00 0.00 0.00 77 999.8
20260507210541 53 22 0.0 0.9 0.00 0.00 0.00 77 999.7
20260507210041 53 22 0.9 0.9 0.00 0.00 0.00 77 999.7
20260507205540 53 135 0.0 0.0 0.00 0.00 0.00 77 999.8
20260507205040 53 22 0.0 0.0 0.00 0.00 0.00 77 999.8
20260507204540 53 180 0.0 0.0 0.00 0.00 0.00 77 999.8
20260507204040 53 180 0.0 0.0 0.00 0.00 0.00 77 1000.0
20260507203539 53 180 0.0 0.0 0.00 0.00 0.00 76 999.8
20260507203039 53 202 0.0 0.0 0.00 0.00 0.00 76 999.7
20260507202539 53 202 0.0 0.0 0.00 0.00 0.00 76 999.8
20260507202038 53 337 0.0 0.0 0.00 0.00 0.00 76 999.8
20260507201538 53 22 0.0 0.0 0.00 0.00 0.00 76 999.8
20260507201038 53 22 0.0 0.0 0.00 0.00 0.00 77 999.8
20260507200538 53 157 0.0 0.0 0.00 0.00 0.00 76 999.9
20260507200037 53 157 0.0 0.0 0.00 0.00 0.00 76 999.7
20260507195537 53 157 0.0 0.9 0.00 0.00 0.00 76 999.6
20260507195037 53 135 0.9 0.9 0.00 0.00 0.00 76 999.5
20260507194536 53 180 0.0 0.0 0.00 0.00 0.00 76 999.5
20260507194036 53 180 0.0 0.0 0.00 0.00 0.00 76 999.7
20260507193537 53 45 0.0 0.0 0.00 0.00 0.00 76 999.5
20260507193035 53 67 0.0 0.0 0.00 0.00 0.00 76 999.7
20260507192535 53 135 0.0 0.0 0.00 0.00 0.00 76 999.6
20260507192035 53 180 0.0 0.0 0.00 0.00 0.00 76 999.6
20260507191535 53 135 0.0 4.3 0.00 0.00 0.00 76 999.6
20260507191034 53 157 0.0 0.0 0.00 0.00 0.00 76 999.2
20260507190534 54 180 0.0 0.0 0.00 0.00 0.00 76 999.1
20260507190034 54 180 0.0 0.0 0.00 0.00 0.00 76 999.3
20260507185534 54 135 0.0 0.0 0.00 0.00 0.00 76 999.3
20260507185033 54 292 0.0 0.0 0.00 0.00 0.00 75 999.4
20260507184533 55 0 0.0 0.0 0.00 0.00 0.00 75 999.3
20260507184033 55 22 0.0 0.9 0.00 0.00 0.00 75 999.2
20260507183532 55 0 0.9 0.9 0.00 0.00 0.00 75 999.0
20260507183032 55 22 0.0 0.0 0.00 0.00 0.00 75 999.0
20260507182610 55 0 0.0 0.9 0.00 0.00 0.00 75 999.1
20260507182532 55 0 0.0 0.9 0.00 0.00 0.00 75 999.1
20260507182031 55 0 0.0 1.7 0.00 0.00 0.00 75 999.1
20260507181633 55 0 1.7 1.7 0.00 0.00 0.00 75 998.7
20260507181531 55 0 0.0 1.7 0.00 0.00 0.00 75 998.9
20260507181031 55 0 1.7 1.7 0.00 0.00 0.00 75 998.7
20260507180531 55 45 0.0 0.0 0.00 0.00 0.00 75 998.8
20260507180030 55 0 0.0 0.0 0.00 0.00 0.00 75 998.7
20260507175612 55 22 0.0 0.9 0.00 0.00 0.00 75 998.8
20260507175530 55 22 0.0 0.9 0.00 0.00 0.00 75 998.8
20260507175030 55 0 0.9 0.9 0.00 0.00 0.00 75 998.8
20260507174529 55 0 0.0 1.7 0.00 0.00 0.00 74 998.5
20260507174029 55 0 0.0 3.5 0.00 0.00 0.00 74 998.4
20260507173529 56 0 0.0 1.7 0.00 0.00 0.00 74 998.2
20260507173028 56 22 0.0 2.6 0.00 0.00 0.00 74 998.0
20260507172528 56 0 2.6 2.6 0.00 0.00 0.00 74 997.8
20260507172028 56 0 0.0 0.0 0.00 0.00 0.00 74 997.8
20260507171528 56 0 0.0 2.6 0.00 0.00 0.00 74 997.9
20260507171027 56 0 2.6 2.6 0.00 0.00 0.00 73 997.9
20260507170527 56 0 0.0 0.0 0.00 0.00 0.00 73 997.8
20260507170027 57 22 0.0 0.0 0.00 0.00 0.00 73 997.7
20260507165526 57 0 0.0 0.0 0.00 0.00 0.00 72 997.7
20260507165026 57 0 0.0 0.9 0.00 0.00 0.00 72 997.6
20260507164526 57 0 0.0 0.9 0.00 0.00 0.00 72 997.6
20260507164026 57 22 0.0 0.0 0.00 0.00 0.00 71 997.5
20260507163525 57 180 0.0 0.0 0.00 0.00 0.00 71 997.6
20260507163025 57 0 0.0 0.9 0.00 0.00 0.00 71 997.3
20260507162526 58 0 0.9 6.1 0.00 0.00 0.00 71 997.4
20260507162025 58 22 0.0 1.7 0.00 0.00 0.00 71 997.5
20260507161525 58 0 0.0 0.0 0.00 0.00 0.00 70 997.7
20260507161024 58 0 0.0 0.0 0.00 0.00 0.00 70 997.8
20260507160524 58 0 0.0 3.5 0.00 0.00 0.00 70 997.7
20260507160024 58 180 0.0 0.0 0.00 0.00 0.00 71 997.8
20260507155523 58 180 0.0 0.9 0.00 0.00 0.00 71 997.8
20260507155023 58 0 0.9 0.9 0.00 0.00 0.00 71 997.7
20260507154522 58 0 0.0 5.2 0.00 0.00 0.00 71 997.8
20260507154022 58 0 3.5 3.5 0.00 0.00 0.00 71 998.0
20260507153522 58 0 3.5 3.5 0.00 0.00 0.00 70 997.8
20260507153021 58 0 0.0 4.3 0.00 0.00 0.00 70 997.8
20260507152521 59 0 0.0 5.2 0.00 0.00 0.00 70 997.8
20260507152024 59 0 5.2 5.2 0.00 0.00 0.00 69 997.7
20260507151521 59 0 2.6 2.6 0.00 0.00 0.00 69 997.7
20260507151020 60 22 0.0 2.6 0.00 0.00 0.00 69 997.8
20260507150520 60 22 2.6 2.6 0.00 0.00 0.00 68 997.9
20260507150020 60 0 0.0 4.3 0.00 0.00 0.00 68 997.7
20260507145521 60 0 4.3 4.3 0.00 0.00 0.00 68 997.7
20260507145019 61 0 1.7 1.7 0.00 0.00 0.00 68 997.7
20260507144519 60 180 1.7 5.2 0.00 0.00 0.00 67 997.6
20260507144019 60 0 1.7 1.7 0.00 0.00 0.00 68 997.7
20260507143518 61 22 0.0 0.9 0.00 0.00 0.00 68 997.5
20260507143019 61 0 0.9 0.9 0.00 0.00 0.00 68 997.5
20260507142518 61 22 0.0 0.0 0.00 0.00 0.00 67 997.5
20260507142018 61 22 0.0 7.0 0.00 0.00 0.00 67 997.5
20260507141517 61 22 0.0 3.5 0.00 0.00 0.00 68 997.4
20260507141017 61 0 3.5 3.5 0.00 0.00 0.00 68 997.2
20260507140516 61 0 3.5 3.5 0.00 0.00 0.00 68 997.2
20260507140016 61 22 0.0 3.5 0.00 0.00 0.00 68 997.3
20260507135517 61 0 0.0 0.0 0.00 0.00 0.00 68 997.1
20260507135016 61 0 0.0 3.5 0.00 0.00 0.00 67 997.3
20260507134515 61 22 3.5 3.5 0.00 0.00 0.00 68 997.3
20260507134015 61 0 0.0 1.7 0.00 0.00 0.00 68 997.4
20260507133515 61 22 0.0 1.7 0.00 0.00 0.00 68 997.3
20260507133015 61 0 1.7 4.3 0.00 0.00 0.00 68 997.4
20260507132514 61 0 4.3 7.8 0.00 0.00 0.00 69 997.2
20260507132015 61 0 0.0 7.8 0.00 0.00 0.00 69 997.2
20260507131514 61 0 1.7 1.7 0.00 0.00 0.00 70 997.1
20260507131014 60 0 0.0 0.0 0.00 0.00 0.00 70 997.2
20260507130513 60 0 0.0 5.2 0.00 0.00 0.00 71 997.2
20260507130013 60 0 5.2 5.2 0.00 0.00 0.00 71 997.3
20260507125512 60 22 0.0 0.0 0.00 0.00 0.00 71 997.2
20260507125012 60 22 0.0 0.9 0.00 0.00 0.00 70 997.3
20260507124512 60 22 0.0 0.0 0.00 0.00 0.00 71 997.2
20260507124012 60 0 0.0 2.6 0.00 0.00 0.00 70 997.3
20260507123511 61 22 0.0 3.5 0.00 0.00 0.00 70 997.4
20260507123012 61 0 3.5 3.5 0.00 0.00 0.00 70 997.3
20260507122511 61 0 0.0 3.5 0.00 0.00 0.00 70 997.2
20260507120126 63 22 0.9 0.9 0.00 0.00 0.00 69 997.2
20260507115625 62 0 0.0 0.0 0.00 0.00 0.00 70 997.1
20260507115125 62 0 0.0 0.9 0.00 0.00 0.00 70 997.3
20260507114625 62 22 0.0 3.5 0.00 0.00 0.00 70 997.3
20260507114125 61 22 0.0 1.7 0.00 0.00 0.00 72 996.9
20260507113625 60 0 1.7 1.7 0.00 0.00 0.00 73 996.8
20260507113124 60 0 1.7 1.7 0.00 0.00 0.00 73 996.7
20260507112624 60 22 0.0 0.0 0.00 0.00 0.00 74 996.8
20260507112123 60 0 0.0 2.6 0.00 0.00 0.00 74 996.9
20260507111624 60 22 1.7 2.6 0.00 0.00 0.00 75 996.7
20260507111123 59 0 0.0 1.7 0.00 0.00 0.00 76 996.7
20260507110631 58 0 0.0 0.9 0.00 0.00 0.00 77 996.7
20260507110623 58 0 0.0 0.9 0.00 0.00 0.00 77 996.7
20260507110122 58 0 0.9 1.7 0.00 0.00 0.00 78 996.7
20260507105622 57 22 1.7 1.7 0.00 0.00 0.00 79 996.7
20260507105122 57 0 0.9 0.9 0.00 0.00 0.00 78 996.5
20260507104621 57 22 0.0 0.0 0.00 0.00 0.00 79 996.5
20260507104121 57 22 0.0 1.7 0.00 0.00 0.00 78 996.4
20260507103621 57 0 1.7 1.7 0.00 0.00 0.00 78 996.4
20260507103121 57 22 0.9 5.2 0.00 0.00 0.00 78 996.5
20260507102620 57 0 5.2 5.2 0.00 0.00 0.00 78 996.4
20260507102120 57 22 0.0 0.0 0.00 0.00 0.00 79 996.3
20260507101625 57 22 0.0 0.0 0.00 0.00 0.00 78 996.3
20260507101620 57 22 0.0 0.0 0.00 0.00 0.00 78 996.3
20260507101119 56 22 0.0 0.0 0.00 0.00 0.00 78 996.1
20260507100619 57 0 0.0 0.0 0.00 0.00 0.00 78 996.2
20260507100119 57 0 0.0 0.0 0.00 0.00 0.00 77 996.2
20260507095618 57 22 0.0 0.0 0.00 0.00 0.00 77 996.1
20260507095118 57 22 0.0 0.9 0.00 0.00 0.00 77 995.9
20260507095038 57 0 0.0 2.6 0.00 0.00 0.00 77 995.7
20260507094618 57 0 0.0 2.6 0.00 0.00 0.00 77 995.7
20260507094118 58 22 2.6 2.6 0.00 0.00 0.00 77 995.9
20260507093618 58 22 2.6 2.6 0.00 0.00 0.00 76 995.8
20260507093121 58 0 0.0 0.9 0.00 0.00 0.00 76 995.8
20260507092617 58 0 0.0 0.9 0.00 0.00 0.00 76 995.5
20260507092157 58 22 0.9 4.3 0.00 0.00 0.00 76 995.6
20260507092116 58 22 0.9 4.3 0.00 0.00 0.00 76 995.6
20260507091616 59 0 0.0 0.0 0.00 0.00 0.00 76 995.6
20260507091116 59 22 0.0 0.0 0.00 0.00 0.00 75 995.6
20260507090716 60 0 0.0 0.0 0.00 0.00 0.00 76 995.5
20260507090616 60 0 0.0 0.0 0.00 0.00 0.00 76 995.5
20260507090115 60 0 0.0 0.0 0.00 0.00 0.00 76 995.4
20260507085615 59 0 0.0 0.0 0.00 0.00 0.00 77 995.4
20260507085115 59 0 0.0 0.0 0.00 0.00 0.00 77 995.3
20260507084614 59 22 0.0 0.0 0.00 0.00 0.00 77 995.2
20260507084114 59 22 0.0 0.9 0.00 0.00 0.00 76 995.1
20260507083614 60 22 0.9 0.9 0.00 0.00 0.00 76 995.1
20260507083113 60 22 0.0 1.7 0.00 0.00 0.00 76 994.9
20260507082619 61 22 0.9 0.9 0.00 0.00 0.00 75 994.8
20260507082613 61 22 0.9 0.9 0.00 0.00 0.00 75 994.8
20260507082114 61 0 0.0 3.5 0.00 0.00 0.00 75 994.8
20260507081613 61 0 1.7 3.5 0.00 0.00 0.00 76 994.7
20260507081113 60 0 0.0 1.7 0.00 0.00 0.00 76 994.6
20260507080612 60 0 1.7 1.7 0.00 0.00 0.00 77 994.7
20260507080112 60 22 0.0 1.7 0.00 0.00 0.00 77 994.7
20260507075612 60 22 1.7 1.7 0.00 0.00 0.00 76 994.7
20260507075117 6 22 0.9 5.2 0.00 0.00 0.00 75 994.7
20260507075111 61 22 0.9 5.2 0.00 0.00 0.00 75 994.7
20260507074611 61 22 2.6 2.6 0.00 0.00 0.00 75 994.4
20260507074111 61 22 0.9 0.9 0.00 0.00 0.00 75 994.4
20260507073610 61 22 0.0 4.3 0.00 0.00 0.00 74 994.3